Location: Clanezzo
(45.7500°N, 9.6000°E)
Time: 09:43:06
(UTC+00:00)

EO-79 - Pass Details

Date: 05 July 2022
Orbit: 588 x 603 km, 98.0° (Epoch: 14 August)

Event Time Altitude Azimuth Distance (km) Brightness Sun altitude
Rises 01:36:47 0° 7° (N) 2,859 ? -15.3°
Reaches altitude 10° 01:39:00 10° 2° (N) 1,954 ? -15.1°
Maximum altitude 01:43:04 47° 289° (WNW) 802 ? -14.7°
Enters shadow 01:45:19 24° 227° (SW) 1,267 ? -14.5°
